• en France
  • Liste des pays
  • À 7 jours
  • Température de l'eau
  • Carte satellitaire
  • Carte météo
  • Widgets météo
  • user-avatar
    Se connecter

    Météo par heure à Ayorou

    Ce jour, 24 Septembre, Lundi

    Heure Température Précipitation Vent Pression Humidité
    00:00 +38°C° 0 mm 3 m/s 738 mmHg 31%
    01:00 +37°C° 0 mm 3 m/s 738 mmHg 34%
    02:00 +36°C° 0 mm 4 m/s 738 mmHg 36%
    03:00 +36°C° 0 mm 4 m/s 737 mmHg 39%
    04:00 +35°C° 0 mm 4 m/s 737 mmHg 41%
    05:00 +35°C° 0 mm 4 m/s 738 mmHg 43%
    06:00 +34°C° 0 mm 4 m/s 738 mmHg 44%
    07:00 +35°C° 0 mm 4 m/s 738 mmHg 42%
    08:00 +37°C° 0 mm 4 m/s 738 mmHg 39%
    09:00 +38°C° 0 mm 4 m/s 739 mmHg 36%
    10:00 +40°C° 0 mm 4 m/s 738 mmHg 31%
    11:00 +42°C° 0 mm 3 m/s 738 mmHg 27%
    12:00 +41°C° 0 mm 2 m/s 738 mmHg 25%
    13:00 +42°C° 0 mm 2 m/s 738 mmHg 22%
    14:00 +44°C° 0 mm 3 m/s 737 mmHg 20%
    15:00 +44°C° 0 mm 4 m/s 736 mmHg 17%
    16:00 +44°C° 0 mm 3 m/s 736 mmHg 17%
    17:00 +44°C° 0 mm 3 m/s 736 mmHg 17%
    18:00 +44°C° 0 mm 3 m/s 736 mmHg 17%
    19:00 +43°C° 0 mm 3 m/s 737 mmHg 18%
    20:00 +41°C° 0 mm 2 m/s 737 mmHg 19%
    21:00 +41°C° 0 mm 2 m/s 737 mmHg 19%
    22:00 +40°C° 0 mm 2 m/s 737 mmHg 21%
    23:00 +39°C° 0 mm 2 m/s 737 mmHg 22%

    Demain, 25 Septembre, Mardi

    Heure Température Précipitation Vent Pression Humidité
    00:00 +39°C° 0 mm 3 m/s 737 mmHg 24%
    01:00 +38°C° 0 mm 3 m/s 737 mmHg 27%
    02:00 +37°C° 0 mm 3 m/s 737 mmHg 30%
    03:00 +37°C° 0 mm 3 m/s 737 mmHg 32%
    04:00 +36°C° 0 mm 3 m/s 737 mmHg 36%
    05:00 +35°C° 0 mm 4 m/s 737 mmHg 39%
    06:00 +35°C° 0 mm 4 m/s 737 mmHg 42%
    07:00 +36°C° 0 mm 5 m/s 738 mmHg 40%
    08:00 +37°C° 0 mm 5 m/s 738 mmHg 38%
    09:00 +40°C° 0 mm 6 m/s 738 mmHg 37%
    10:00 +41°C° 0 mm 4 m/s 738 mmHg 31%
    11:00 +41°C° 0 mm 2 m/s 738 mmHg 26%
    12:00 +42°C° 0 mm 1 m/s 738 mmHg 20%
    13:00 +43°C° 0 mm 2 m/s 737 mmHg 19%
    14:00 +44°C° 0 mm 3 m/s 736 mmHg 17%
    15:00 +44°C° 0 mm 4 m/s 735 mmHg 16%
    16:00 +44°C° 0 mm 3 m/s 735 mmHg 16%
    17:00 +43°C° 0 mm 2 m/s 735 mmHg 16%
    18:00 +42°C° 0 mm 2 m/s 735 mmHg 16%
    19:00 +42°C° 0 mm 2 m/s 736 mmHg 17%
    20:00 +41°C° 0 mm 2 m/s 736 mmHg 18%
    21:00 +40°C° 0 mm 2 m/s 737 mmHg 19%
    22:00 +40°C° 0 mm 2 m/s 737 mmHg 20%
    23:00 +39°C° 0 mm 3 m/s 736 mmHg 22%

    Après-demain, 26 Septembre, Mercredi

    Heure Température Précipitation Vent Pression Humidité
    00:00 +38°C° 0 mm 3 m/s 736 mmHg 23%
    01:00 +38°C° 0 mm 3 m/s 736 mmHg 27%
    02:00 +37°C° 0 mm 3 m/s 736 mmHg 30%
    03:00 +36°C° 0 mm 3 m/s 736 mmHg 34%
    04:00 +35°C° 0 mm 4 m/s 736 mmHg 38%
    05:00 +35°C° 0 mm 5 m/s 737 mmHg 42%
    06:00 +34°C° 0 mm 6 m/s 737 mmHg 46%
    07:00 +35°C° 0 mm 7 m/s 738 mmHg 45%
    08:00 +36°C° 0 mm 7 m/s 738 mmHg 44%
    09:00 +38°C° 0 mm 7 m/s 739 mmHg 42%
    10:00 +40°C° 0 mm 6 m/s 738 mmHg 38%
    11:00 +41°C° 0 mm 5 m/s 738 mmHg 33%
    12:00 +42°C° 0 mm 4 m/s 737 mmHg 29%
    13:00 +43°C° 0 mm 3 m/s 737 mmHg 26%
    14:00 +43°C° 0 mm 3 m/s 736 mmHg 23%
    15:00 +43°C° 0 mm 2 m/s 735 mmHg 20%
    16:00 +43°C° 0 mm 2 m/s 735 mmHg 20%
    17:00 +43°C° 0 mm 2 m/s 735 mmHg 20%
    18:00 +42°C° 0 mm 2 m/s 736 mmHg 20%
    19:00 +42°C° 0 mm 2 m/s 736 mmHg 21%
    20:00 +42°C° 0 mm 2 m/s 737 mmHg 22%
    21:00 +41°C° 0 mm 2 m/s 737 mmHg 22%
    22:00 +42°C° 0 mm 3 m/s 737 mmHg 25%
    23:00 +41°C° 0 mm 4 m/s 737 mmHg 28%

    27 Septembre, Jeudi

    Heure Température Précipitation Vent Pression Humidité
    00:00 +40°C° 0 mm 4 m/s 737 mmHg 30%
    01:00 +39°C° 0 mm 5 m/s 736 mmHg 34%
    02:00 +37°C° 0 mm 5 m/s 736 mmHg 38%
    03:00 +36°C° 0 mm 6 m/s 736 mmHg 42%
    04:00 +36°C° 0 mm 6 m/s 736 mmHg 45%
    05:00 +35°C° 0 mm 6 m/s 736 mmHg 47%
    06:00 +35°C° 0 mm 5 m/s 737 mmHg 50%
    07:00 +36°C° 0 mm 6 m/s 737 mmHg 47%
    08:00 +38°C° 0 mm 6 m/s 738 mmHg 45%
    09:00 +39°C° 0 mm 6 m/s 738 mmHg 42%
    10:00 +40°C° 0 mm 6 m/s 738 mmHg 38%
    11:00 +41°C° 0 mm 5 m/s 737 mmHg 34%
    12:00 +43°C° 0 mm 5 m/s 737 mmHg 29%
    13:00 +43°C° 0 mm 3 m/s 736 mmHg 26%
    14:00 +43°C° 0 mm 2 m/s 735 mmHg 22%
    15:00 +43°C° 0 mm 1 m/s 734 mmHg 19%
    16:00 +43°C° 0 mm 1 m/s 735 mmHg 19%
    17:00 +43°C° 0 mm 1 m/s 735 mmHg 19%
    18:00 +43°C° 0 mm 2 m/s 735 mmHg 19%
    19:00 +43°C° 0 mm 3 m/s 735 mmHg 20%
    20:00 +42°C° 0 mm 4 m/s 736 mmHg 21%
    21:00 +42°C° 0 mm 6 m/s 736 mmHg 22%
    22:00 +41°C° 0 mm 5 m/s 736 mmHg 25%
    23:00 +40°C° 0 mm 5 m/s 736 mmHg 28%

    28 Septembre, Vendredi

    Heure Température Précipitation Vent Pression Humidité
    00:00 +39°C° 0 mm 5 m/s 736 mmHg 31%
    01:00 +36°C° 0 mm 6 m/s 736 mmHg 36%
    02:00 +35°C° 0 mm 7 m/s 736 mmHg 40%
    03:00 +34°C° 0 mm 9 m/s 736 mmHg 45%
    04:00 +34°C° 0 mm 7 m/s 736 mmHg 45%
    05:00 +34°C° 0 mm 6 m/s 737 mmHg 45%
    06:00 +34°C° 0 mm 5 m/s 737 mmHg 46%
    07:00 +35°C° 0 mm 6 m/s 738 mmHg 42%
    08:00 +36°C° 0 mm 6 m/s 738 mmHg 39%
    09:00 +39°C° 0 mm 6 m/s 738 mmHg 35%
    10:00 +40°C° 0 mm 6 m/s 738 mmHg 32%
    11:00 +41°C° 0 mm 5 m/s 737 mmHg 28%
    12:00 +43°C° 0 mm 5 m/s 737 mmHg 25%
    13:00 +43°C° 0 mm 5 m/s 736 mmHg 24%
    14:00 +43°C° 0 mm 5 m/s 736 mmHg 24%
    15:00 +43°C° 0 mm 4 m/s 735 mmHg 23%
    16:00 +43°C° 0.1 mm 4 m/s 735 mmHg 24%
    17:00 +42°C° 0.1 mm 4 m/s 736 mmHg 26%
    18:00 +42°C° 0.1 mm 4 m/s 736 mmHg 27%
    19:00 +40°C° 1.9 mm 5 m/s 736 mmHg 34%
    20:00 +38°C° 1.9 mm 6 m/s 737 mmHg 40%
    21:00 +35°C° 1.9 mm 7 m/s 737 mmHg 47%
    22:00 +35°C° 3.5 mm 8 m/s 737 mmHg 46%
    23:00 +34°C° 3.5 mm 8 m/s 737 mmHg 44%

    29 Septembre, Samedi

    Heure Température Précipitation Vent Pression Humidité
    00:00 +34°C° 3.5 mm 9 m/s 737 mmHg 43%
    01:00 +34°C° 0.2 mm 7 m/s 737 mmHg 41%
    02:00 +35°C° 0.2 mm 5 m/s 737 mmHg 39%
    03:00 +35°C° 0.2 mm 3 m/s 736 mmHg 36%
    04:00 +35°C° 0.3 mm 4 m/s 737 mmHg 37%
    05:00 +35°C° 0.3 mm 5 m/s 737 mmHg 38%
    06:00 +34°C° 0.3 mm 6 m/s 737 mmHg 38%
    07:00 +36°C° 0.1 mm 6 m/s 738 mmHg 35%
    08:00 +37°C° 0.1 mm 5 m/s 738 mmHg 32%
    09:00 +39°C° 0.1 mm 5 m/s 738 mmHg 28%
    10:00 +40°C° 0 mm 4 m/s 738 mmHg 27%
    11:00 +41°C° 0 mm 4 m/s 737 mmHg 25%
    12:00 +42°C° 0 mm 3 m/s 737 mmHg 23%
    13:00 +42°C° 0 mm 3 m/s 736 mmHg 22%
    14:00 +42°C° 0 mm 2 m/s 736 mmHg 21%
    15:00 +42°C° 0 mm 2 m/s 735 mmHg 21%
    16:00 +43°C° 0.1 mm 3 m/s 736 mmHg 22%
    17:00 +42°C° 0.1 mm 3 m/s 736 mmHg 23%
    18:00 +42°C° 0.1 mm 4 m/s 736 mmHg 24%
    19:00 +40°C° 0 mm 3 m/s 736 mmHg 26%
    20:00 +40°C° 0 mm 3 m/s 737 mmHg 27%
    21:00 +39°C° 0 mm 3 m/s 737 mmHg 28%
    22:00 +38°C° 0 mm 3 m/s 737 mmHg 31%
    23:00 +38°C° 0 mm 3 m/s 736 mmHg 34%
    Voir plus